Location: Kawakawa
(35.3830°S, 174.0670°E)
Time: 09:37:29
(UTC+13:00)

Lacrosse 5 - Pass Details

Date: 24 January 2019
Orbit: 713 x 725 km, 57.0° (Epoch: 17 February)

Event Time Altitude Azimuth Distance (km) Brightness Sun altitude
Rises 21:09:50 0° 215° (SW) 3,168 6.5 -6.7°
Reaches altitude 10° 21:12:21 10° 208° (SSW) 2,240 5.4 -7.1°
Maximum altitude 21:17:17 44° 136° (SE) 1,012 2.6 -8.0°
Enters shadow 21:21:58 11° 64° (ENE) 2,150 3.6 -8.8°
